Content
SEND FEEDBACK

Daily
Averages
Monthly
Summary
United States of America

RIMROCK, ARIZONA


Home > North America > United States > Arizona
Elevation: 3830 feet     Latitude: 34 40N     Longitude: 111 43W

WEATHER
 
SELECT A DAY
Number of Records: 139,847;   Date Range: 1/4/95 - 11/21/14
 
SHARE

PRINT THIS DATA

[ ← Previous Day ]
WEATHER ALMANAC - FEBRUARY 21, 2014
[ Next Day → ]
[ °C ]   °F
Weather ElementAverageHighLow
Temperature51.5 °F66.2 °F (3:35 pm)41 °F (2:35 am)
Dewpoint10.1 °F14 °F (12:15 pm)6.8 °F (1:15 am)
Humidity19.6 %26 % (2:35 am)13 % (2:35 pm)
Barometer30.06 in30.13 in (8:35 am)29.97 in (5:55 pm)
Wind Speed6.3 mph12.7 mph (12:35 am)
Weather ElementAverage
Visibility10 mi
Wind DirectionESE (113.2 °)

Weather ElementTotal
Precipitation---
Heating Degree Days11.4 (Base 65)
Growing Degree Days3.6 (Base 50)
Averaged from 71 records on February 21, 2014
WEATHER CONDITIONS BREAKOUT
WIND DIRECTION BREAKOUT
WEATHER BY HOUR - FEBRUARY 21, 2014
[ °C ]   °F
Local TimeTemperatureDewpointHumidityBarometerVisibilityWind DirectionWind SpeedGust SpeedPrecipitationEventsConditions
12:35 AM42.8 °F8.6 °F25 %30.11 in10.0 miNE (40°)12.7 mphClear
12:55 AM42.8 °F8.6 °F25 %30.10 in10.0 miNE (40°)11.5 mphClear
1:15 AM42.8 °F6.8 °F23 %30.10 in10.0 miNE (40°)11.5 mphClear
1:35 AM42.8 °F6.8 °F23 %30.11 in10.0 miNE (40°)10.4 mphClear
1:55 AM42.8 °F6.8 °F23 %30.11 in10.0 miNE (50°)5.8 mphClear
2:15 AM42.8 °F6.8 °F23 %30.10 in10.0 miCalmClear
2:35 AM41.0 °F8.6 °F26 %30.10 in10.0 miNE (40°)6.9 mphClear
2:55 AM41.0 °F8.6 °F26 %30.10 in10.0 miNE (40°)3.5 mphClear
3:15 AM41.0 °F8.6 °F26 %30.10 in10.0 miNNE (30°)8.1 mphClear
3:35 AM41.0 °F8.6 °F26 %30.10 in10.0 miNE (40°)10.4 mphClear
3:55 AM41.0 °F8.6 °F26 %30.10 in10.0 miNE (40°)9.2 mphClear
4:15 AM41.0 °F8.6 °F26 %30.10 in10.0 miNE (40°)9.2 mphClear
4:35 AM41.0 °F8.6 °F26 %30.10 in10.0 miNNE (30°)6.9 mphClear
4:55 AM41.0 °F8.6 °F26 %30.10 in10.0 miNNE (30°)6.9 mphClear
5:15 AM41.0 °F8.6 °F26 %30.10 in10.0 miNE (40°)10.4 mphClear
5:35 AM41.0 °F8.6 °F26 %30.10 in10.0 miNE (40°)11.5 mphClear
5:55 AM41.0 °F8.6 °F26 %30.10 in10.0 miNE (50°)11.5 mphClear
6:15 AM41.0 °F8.6 °F26 %30.10 in10.0 miNE (50°)12.7 mphClear
6:35 AM41.0 °F6.8 °F24 %30.10 in10.0 miNE (50°)11.5 mphClear
6:55 AM41.0 °F6.8 °F24 %30.10 in10.0 miNE (50°)10.4 mphClear
7:15 AM41.0 °F6.8 °F24 %30.10 in10.0 miNE (50°)10.4 mphClear
7:35 AM41.0 °F6.8 °F24 %30.10 in10.0 miNE (50°)11.5 mphClear
7:55 AM42.8 °F8.6 °F25 %30.11 in10.0 miENE (60°)8.1 mphClear
8:15 AM42.8 °F8.6 °F25 %30.12 in10.0 miEast (90°)5.8 mphClear
8:35 AM44.6 °F10.4 °F25 %30.13 in10.0 miENE (60°)3.5 mphClear
8:55 AM46.4 °F10.4 °F23 %30.13 in10.0 miNE (50°)4.6 mphClear
9:15 AM48.2 °F10.4 °F22 %30.13 in10.0 miEast (100°)4.6 mphClear
9:35 AM50.0 °F12.2 °F22 %30.13 in10.0 miSSE (150°)3.5 mphClear
9:55 AM50.0 °F12.2 °F22 %30.13 in10.0 miSouth (180°)4.6 mphClear
10:15 AM51.8 °F12.2 °F21 %30.13 in10.0 miSouth (170°)4.6 mphClear
10:35 AM53.6 °F10.4 °F18 %30.12 in10.0 miSouth (190°)4.6 mphClear
10:55 AM55.4 °F10.4 °F17 %30.12 in10.0 miSouth (180°)5.8 mphClear
11:15 AM55.4 °F12.2 °F18 %30.11 in10.0 miSSW (200°)6.9 mphClear
11:35 AM57.2 °F12.2 °F17 %30.11 in10.0 miSSW (200°)4.6 mphClear
11:55 AM59.0 °F12.2 °F16 %30.10 in10.0 miSouth (180°)5.8 mphClear
12:15 PM60.8 °F14.0 °F16 %30.09 in10.0 miSSE (150°)4.6 mphClear
12:35 PM60.8 °F12.2 °F15 %30.08 in10.0 miSSW (200°)6.9 mphClear
12:55 PM62.6 °F12.2 °F14 %30.07 in10.0 miSSW (210°)5.8 mphClear
1:15 PM62.6 °F12.2 °F14 %30.06 in10.0 miSW (220°)6.9 mphClear
1:35 PM62.6 °F14.0 °F15 %30.05 in10.0 miWSW (240°)6.9 mphClear
1:55 PM64.4 °F14.0 °F14 %30.04 in10.0 miWNW (290°)5.8 mphClear
2:15 PM62.6 °F12.2 °F14 %30.03 in10.0 miWest (260°)4.6 mphClear
2:35 PM64.4 °F12.2 °F13 %30.02 in10.0 miSouth (190°)9.2 mphClear
2:55 PM64.4 °F12.2 °F13 %30.01 in10.0 miSouth (180°)6.9 mphClear
3:15 PM64.4 °F14.0 °F14 %30.00 in10.0 miSouth (180°)4.6 mphClear
3:35 PM66.2 °F14.0 °F13 %30.00 in10.0 miSW (220°)6.9 mphClear
3:55 PM62.6 °F14.0 °F15 %29.99 in10.0 miSW (230°)3.5 mphClear
4:15 PM64.4 °F14.0 °F14 %29.99 in10.0 miSW (220°)5.8 mphClear
4:35 PM64.4 °F12.2 °F13 %29.98 in10.0 miSSW (200°)8.1 mphClear
4:55 PM64.4 °F12.2 °F13 %29.98 in10.0 miSSW (200°)8.1 mphClear
5:15 PM62.6 °F12.2 °F14 %29.98 in10.0 miSW (220°)9.2 mphClear
5:35 PM60.8 °F12.2 °F15 %29.98 in10.0 miSSW (210°)9.2 mphClear
5:55 PM60.8 °F10.4 °F14 %29.97 in10.0 miSSW (200°)8.1 mphClear
6:15 PM59.0 °F10.4 °F15 %29.97 in10.0 miSSW (210°)6.9 mphClear
6:35 PM57.2 °F10.4 °F16 %29.98 in10.0 miSW (220°)10.4 mphClear
6:55 PM57.2 °F10.4 °F16 %29.99 in10.0 miSW (220°)6.9 mphClear
7:15 PM55.4 °F8.6 °F15 %29.99 in10.0 miSSW (200°)4.6 mphClear
7:35 PM53.6 °F8.6 °F16 %30.00 in10.0 miCalmClear
7:55 PM53.6 °F8.6 °F16 %30.00 in10.0 miCalmClear
8:15 PM53.6 °F8.6 °F16 %30.00 in10.0 miESE (120°)4.6 mphClear
8:35 PM53.6 °F8.6 °F16 %30.00 in10.0 miCalmClear
8:55 PM53.6 °F8.6 °F16 %30.00 in10.0 miSW (230°)3.5 mphClear
9:15 PM53.6 °F8.6 °F16 %30.01 in10.0 miSW (230°)4.6 mphClear
9:35 PM53.6 °F8.6 °F16 %30.02 in10.0 miCalmClear
9:55 PM51.8 °F8.6 °F18 %30.02 in10.0 miCalmClear
10:15 PM51.8 °F8.6 °F18 %30.02 in10.0 miCalmClear
10:35 PM50.0 °F10.4 °F20 %30.02 in10.0 miNorth (10°)4.6 mphClear
10:55 PM48.2 °F10.4 °F22 %30.02 in10.0 miCalmClear
11:15 PM48.2 °F10.4 °F22 %30.02 in10.0 miCalmClear
11:35 PM46.4 °F10.4 °F23 %30.02 in10.0 miNNE (30°)3.5 mphClear
11:55 PM48.2 °F10.4 °F22 %30.02 in10.0 miENE (60°)3.5 mphClear
Hourly data recorded from KSEZ, located miles away from Rimrock, Arizona







STORIES FROM OUR PARTNERS